Location: Goettingen
(51.5300°N, 9.9433°E)
Time: 04:27:11
(UTC+01:00)

ISS - Pass Details

Date: 01 March 2019
Orbit: 406 x 411 km, 51.6° (Epoch: 19 March)

Event Time Altitude Azimuth Distance (km) Brightness Sun altitude
Exits shadow 04:41:23 21° 138° (SE) 990 -1.7 -23.1°
Drops below altitude 10° 04:43:40 10° 94° (E) 1,468 -0.1 -22.8°
Sets 04:46:05 0° 78° (ENE) 2,332 1.5 -22.4°
